<?xml version="1.0" encoding="UTF-8" standalone="no" ?>
<gpx xmlns="http://www.topografix.com/GPX/1/1" xmlns:xsi="http://www.w3.org/2001/XMLSchema-instance" xsi:schemaLocation="http://www.topografix.com/GPX/1/1 http://www.topografix.com/GPX/1/1/gpx.xsd" version="1.1" creator="VisuGPX - https://www.visugpx.com">
  <metadata>
    <name>Damvix_RainettesCoudreau_18km</name>
    <desc><![CDATA[gnerando]]></desc>
  </metadata>
  <trk>
    <name><![CDATA[OR-7850479--Damvix:Damvix_18.2km]]></name>
    <extensions>
      <line xmlns="http://www.topografix.com/GPX/gpx_style/0/2">
        <color>0000FF</color>
        <width>4</width>
      </line>
    </extensions>
    <trkseg>
      <trkpt lat="46.31377" lon="-0.73376">
        <ele>5</ele>
        <time>2017-10-15T20:59:44Z</time>
      </trkpt>
      <trkpt lat="46.31314" lon="-0.73346">
        <ele>5</ele>
        <time>2017-10-15T21:01:44Z</time>
      </trkpt>
      <trkpt lat="46.31211" lon="-0.73527">
        <ele>4</ele>
        <time>2017-10-15T21:03:44Z</time>
      </trkpt>
      <trkpt lat="46.31107" lon="-0.73763">
        <ele>4</ele>
        <time>2017-10-15T21:05:44Z</time>
      </trkpt>
      <trkpt lat="46.30873" lon="-0.73964">
        <ele>3</ele>
        <time>2017-10-15T21:07:44Z</time>
      </trkpt>
      <trkpt lat="46.30802" lon="-0.73973">
        <ele>3</ele>
        <time>2017-10-15T21:09:44Z</time>
      </trkpt>
      <trkpt lat="46.30733" lon="-0.74067">
        <ele>3</ele>
        <time>2017-10-15T21:11:44Z</time>
      </trkpt>
      <trkpt lat="46.30976" lon="-0.74866">
        <ele>3</ele>
        <time>2017-10-15T21:13:44Z</time>
      </trkpt>
      <trkpt lat="46.30926" lon="-0.75007">
        <ele>3</ele>
        <time>2017-10-15T21:15:44Z</time>
      </trkpt>
      <trkpt lat="46.30885" lon="-0.74964">
        <ele>3</ele>
        <time>2017-10-15T21:17:44Z</time>
      </trkpt>
      <trkpt lat="46.3071" lon="-0.75162">
        <ele>4</ele>
        <time>2017-10-15T21:19:44Z</time>
      </trkpt>
      <trkpt lat="46.30618" lon="-0.75368">
        <ele>4</ele>
        <time>2017-10-15T21:21:44Z</time>
      </trkpt>
      <trkpt lat="46.30674" lon="-0.75428">
        <ele>2</ele>
        <time>2017-10-15T21:23:44Z</time>
      </trkpt>
      <trkpt lat="46.30449" lon="-0.75792">
        <ele>4</ele>
        <time>2017-10-15T21:25:44Z</time>
      </trkpt>
      <trkpt lat="46.31409" lon="-0.77179">
        <ele>4</ele>
        <time>2017-10-15T21:27:44Z</time>
      </trkpt>
      <trkpt lat="46.31746" lon="-0.77676">
        <ele>3</ele>
        <time>2017-10-15T21:29:44Z</time>
      </trkpt>
      <trkpt lat="46.31793" lon="-0.77743">
        <ele>3</ele>
        <time>2017-10-15T21:31:44Z</time>
      </trkpt>
      <trkpt lat="46.31758" lon="-0.77792">
        <ele>3</ele>
        <time>2017-10-15T21:33:44Z</time>
      </trkpt>
      <trkpt lat="46.31815" lon="-0.77968">
        <ele>2</ele>
        <time>2017-10-15T21:35:44Z</time>
      </trkpt>
      <trkpt lat="46.31872" lon="-0.78247">
        <ele>4</ele>
        <time>2017-10-15T21:37:44Z</time>
      </trkpt>
      <trkpt lat="46.31889" lon="-0.78543">
        <ele>2</ele>
        <time>2017-10-15T21:39:44Z</time>
      </trkpt>
      <trkpt lat="46.32067" lon="-0.78805">
        <ele>3</ele>
        <time>2017-10-15T21:41:44Z</time>
      </trkpt>
      <trkpt lat="46.3215" lon="-0.78694">
        <ele>5</ele>
        <time>2017-10-15T21:43:44Z</time>
      </trkpt>
      <trkpt lat="46.31946" lon="-0.78518">
        <ele>3</ele>
        <time>2017-10-15T21:45:44Z</time>
      </trkpt>
      <trkpt lat="46.31898" lon="-0.78239">
        <ele>4</ele>
        <time>2017-10-15T21:47:44Z</time>
      </trkpt>
      <trkpt lat="46.31848" lon="-0.77913">
        <ele>2</ele>
        <time>2017-10-15T21:49:44Z</time>
      </trkpt>
      <trkpt lat="46.31884" lon="-0.77642">
        <ele>3</ele>
        <time>2017-10-15T21:51:44Z</time>
      </trkpt>
      <trkpt lat="46.31912" lon="-0.77576">
        <ele>3</ele>
        <time>2017-10-15T21:53:44Z</time>
      </trkpt>
      <trkpt lat="46.31977" lon="-0.77505">
        <ele>5</ele>
        <time>2017-10-15T21:55:44Z</time>
      </trkpt>
      <trkpt lat="46.32026" lon="-0.77438">
        <ele>4</ele>
        <time>2017-10-15T21:57:44Z</time>
      </trkpt>
      <trkpt lat="46.32295" lon="-0.7625">
        <ele>3</ele>
        <time>2017-10-15T21:59:44Z</time>
      </trkpt>
      <trkpt lat="46.32454" lon="-0.76029">
        <ele>3</ele>
        <time>2017-10-15T22:01:44Z</time>
      </trkpt>
      <trkpt lat="46.32466" lon="-0.75973">
        <ele>3</ele>
        <time>2017-10-15T22:03:44Z</time>
      </trkpt>
      <trkpt lat="46.32527" lon="-0.75857">
        <ele>3</ele>
        <time>2017-10-15T22:05:44Z</time>
      </trkpt>
      <trkpt lat="46.32798" lon="-0.7567">
        <ele>4</ele>
        <time>2017-10-15T22:07:44Z</time>
      </trkpt>
      <trkpt lat="46.32896" lon="-0.75649">
        <ele>6</ele>
        <time>2017-10-15T22:09:44Z</time>
      </trkpt>
      <trkpt lat="46.33485" lon="-0.75149">
        <ele>3</ele>
        <time>2017-10-15T22:11:44Z</time>
      </trkpt>
      <trkpt lat="46.33638" lon="-0.75014">
        <ele>4</ele>
        <time>2017-10-15T22:13:44Z</time>
      </trkpt>
      <trkpt lat="46.33802" lon="-0.74835">
        <ele>4</ele>
        <time>2017-10-15T22:15:44Z</time>
      </trkpt>
      <trkpt lat="46.33953" lon="-0.74314">
        <ele>3</ele>
        <time>2017-10-15T22:17:44Z</time>
      </trkpt>
      <trkpt lat="46.34448" lon="-0.7222">
        <ele>5</ele>
        <time>2017-10-15T22:19:44Z</time>
      </trkpt>
      <trkpt lat="46.33993" lon="-0.72231">
        <ele>5</ele>
        <time>2017-10-15T22:21:44Z</time>
      </trkpt>
      <trkpt lat="46.33744" lon="-0.72123">
        <ele>4</ele>
        <time>2017-10-15T22:23:44Z</time>
      </trkpt>
      <trkpt lat="46.33478" lon="-0.7199">
        <ele>5</ele>
        <time>2017-10-15T22:25:44Z</time>
      </trkpt>
      <trkpt lat="46.33235" lon="-0.71471">
        <ele>6</ele>
        <time>2017-10-15T22:27:44Z</time>
      </trkpt>
      <trkpt lat="46.33167" lon="-0.71376">
        <ele>6</ele>
        <time>2017-10-15T22:29:44Z</time>
      </trkpt>
      <trkpt lat="46.32764" lon="-0.71497">
        <ele>5</ele>
        <time>2017-10-15T22:31:44Z</time>
      </trkpt>
      <trkpt lat="46.33324" lon="-0.73278">
        <ele>5</ele>
        <time>2017-10-15T22:33:44Z</time>
      </trkpt>
      <trkpt lat="46.3315" lon="-0.73458">
        <ele>3</ele>
        <time>2017-10-15T22:35:44Z</time>
      </trkpt>
      <trkpt lat="46.32827" lon="-0.73449">
        <ele>5</ele>
        <time>2017-10-15T22:37:44Z</time>
      </trkpt>
      <trkpt lat="46.32696" lon="-0.73297">
        <ele>5</ele>
        <time>2017-10-15T22:39:44Z</time>
      </trkpt>
      <trkpt lat="46.32565" lon="-0.73331">
        <ele>6</ele>
        <time>2017-10-15T22:41:44Z</time>
      </trkpt>
      <trkpt lat="46.32245" lon="-0.73346">
        <ele>7</ele>
        <time>2017-10-15T22:43:44Z</time>
      </trkpt>
      <trkpt lat="46.32079" lon="-0.73233">
        <ele>8</ele>
        <time>2017-10-15T22:45:44Z</time>
      </trkpt>
      <trkpt lat="46.32005" lon="-0.73248">
        <ele>7</ele>
        <time>2017-10-15T22:47:44Z</time>
      </trkpt>
      <trkpt lat="46.31897" lon="-0.73301">
        <ele>6</ele>
        <time>2017-10-15T22:49:44Z</time>
      </trkpt>
      <trkpt lat="46.31741" lon="-0.73436">
        <ele>6</ele>
        <time>2017-10-15T22:51:44Z</time>
      </trkpt>
      <trkpt lat="46.31664" lon="-0.7346">
        <ele>7</ele>
        <time>2017-10-15T22:53:44Z</time>
      </trkpt>
      <trkpt lat="46.3162" lon="-0.7337">
        <ele>6</ele>
        <time>2017-10-15T22:55:44Z</time>
      </trkpt>
      <trkpt lat="46.31492" lon="-0.73342">
        <ele>7</ele>
        <time>2017-10-15T22:57:44Z</time>
      </trkpt>
      <trkpt lat="46.31371" lon="-0.73378">
        <ele>5</ele>
        <time>2017-10-15T22:59:44Z</time>
      </trkpt>
    </trkseg>
  </trk>
</gpx>